| time (UTC) | temp F | wind direction | speed knots | gust knots | rain 1hr in | rain 24hr in | rain mn in | humidity % | barometer mb |
| 20260509150431 | 77 | 278 | 6.1 | 8.7 | 0.00 | 0.00 | 0.00 | 55 | 993.9 |
| 20260509145931 | 77 | 295 | 6.1 | 8.7 | 0.00 | 0.00 | 0.00 | 58 | 993.9 |
| 20260509145431 | 77 | 276 | 2.6 | 8.7 | 0.00 | 0.00 | 0.00 | 59 | 993.9 |
| 20260509144932 | 76 | 281 | 3.5 | 8.7 | 0.00 | 0.00 | 0.00 | 63 | 993.9 |
| 20260509144431 | 76 | 299 | 4.3 | 7.0 | 0.00 | 0.00 | 0.00 | 65 | 993.9 |
| 20260509143931 | 76 | 300 | 5.2 | 9.6 | 0.00 | 0.00 | 0.00 | 66 | 993.9 |
| 20260509143431 | 75 | 314 | 4.3 | 7.0 | 0.00 | 0.00 | 0.00 | 71 | 993.9 |
| 20260509142931 | 75 | 311 | 3.5 | 6.1 | 0.00 | 0.00 | 0.00 | 73 | 993.9 |
| 20260509142432 | 74 | 316 | 6.1 | 7.8 | 0.00 | 0.00 | 0.00 | 74 | 993.9 |
| 20260509141931 | 73 | 328 | 4.3 | 5.2 | 0.00 | 0.00 | 0.00 | 79 | 993.9 |
| 20260509141432 | 73 | 321 | 4.3 | 6.1 | 0.00 | 0.00 | 0.00 | 79 | 993.9 |
| 20260509140931 | 73 | 284 | 5.2 | 6.1 | 0.00 | 0.00 | 0.00 | 80 | 993.9 |
| 20260509140432 | 73 | 271 | 4.3 | 5.2 | 0.00 | 0.00 | 0.00 | 81 | 993.9 |
| 20260509135932 | 73 | 296 | 3.5 | 6.1 | 0.00 | 0.00 | 0.00 | 81 | 993.9 |
| 20260509135431 | 73 | 278 | 4.3 | 6.1 | 0.00 | 0.00 | 0.00 | 82 | 993.9 |
| 20260509134931 | 72 | 326 | 5.2 | 5.2 | 0.00 | 0.00 | 0.00 | 82 | 993.9 |
| 20260509134431 | 72 | 299 | 4.3 | 8.7 | 0.00 | 0.00 | 0.00 | 83 | 993.6 |
| 20260509133931 | 72 | 267 | 5.2 | 7.0 | 0.00 | 0.00 | 0.00 | 83 | 993.6 |
| 20260509133432 | 71 | 349 | 4.3 | 7.0 | 0.00 | 0.00 | 0.00 | 84 | 993.9 |
| 20260509132932 | 71 | 326 | 2.6 | 6.1 | 0.00 | 0.00 | 0.00 | 84 | 993.9 |
| 20260509132431 | 71 | 293 | 6.1 | 7.0 | 0.00 | 0.00 | 0.00 | 84 | 993.9 |
| 20260509131931 | 71 | 304 | 2.6 | 5.2 | 0.00 | 0.00 | 0.00 | 86 | 993.9 |
| 20260509131431 | 71 | 291 | 2.6 | 8.7 | 0.00 | 0.00 | 0.00 | 86 | 993.6 |
| 20260509130932 | 70 | 275 | 3.5 | 6.1 | 0.00 | 0.00 | 0.00 | 87 | 993.9 |
| 20260509130432 | 70 | 312 | 3.5 | 5.2 | 0.00 | 0.00 | 0.00 | 87 | 993.9 |
| 20260509125931 | 70 | 357 | 0.0 | 7.0 | 0.00 | 0.00 | 0.00 | 88 | 993.6 |
| 20260509125431 | 69 | 288 | 2.6 | 6.1 | 0.00 | 0.00 | 0.00 | 88 | 993.6 |
| 20260509124931 | 69 | 327 | 3.5 | 4.3 | 0.00 | 0.00 | 0.00 | 89 | 993.6 |
| 20260509124431 | 69 | 296 | 4.3 | 7.0 | 0.00 | 0.00 | 0.00 | 89 | 993.6 |
| 20260509123931 | 69 | 339 | 4.3 | 7.8 | 0.00 | 0.00 | 0.00 | 90 | 993.9 |
| 20260509123432 | 68 | 358 | 3.5 | 7.0 | 0.00 | 0.00 | 0.00 | 90 | 993.6 |
| 20260509122931 | 68 | 286 | 4.3 | 7.8 | 0.00 | 0.00 | 0.00 | 91 | 993.6 |
| 20260509122431 | 68 | 325 | 2.6 | 7.0 | 0.00 | 0.00 | 0.00 | 91 | 993.6 |
| 20260509121931 | 68 | 221 | 2.6 | 5.2 | 0.00 | 0.00 | 0.00 | 91 | 993.6 |
| 20260509121432 | 68 | 292 | 5.2 | 5.2 | 0.00 | 0.00 | 0.00 | 91 | 993.6 |
| 20260509120932 | 68 | 314 | 2.6 | 6.1 | 0.00 | 0.00 | 0.00 | 92 | 993.6 |
| 20260509120431 | 68 | 350 | 1.7 | 5.2 | 0.00 | 0.00 | 0.00 | 92 | 993.6 |
| 20260509115931 | 68 | 294 | 1.7 | 5.2 | 0.00 | 0.00 | 0.00 | 92 | 993.6 |
| 20260509115432 | 68 | 304 | 3.5 | 5.2 | 0.00 | 0.00 | 0.00 | 92 | 993.6 |
| 20260509114931 | 68 | 307 | 3.5 | 5.2 | 0.00 | 0.00 | 0.00 | 92 | 993.6 |
| 20260509114431 | 68 | 344 | 1.7 | 5.2 | 0.00 | 0.00 | 0.00 | 91 | 993.2 |
| 20260509113931 | 68 | 286 | 5.2 | 7.8 | 0.00 | 0.00 | 0.00 | 91 | 993.6 |
| 20260509113431 | 68 | 293 | 4.3 | 7.0 | 0.00 | 0.00 | 0.00 | 91 | 993.2 |
| 20260509112931 | 68 | 303 | 7.0 | 9.6 | 0.00 | 0.00 | 0.00 | 90 | 992.9 |
| 20260509112431 | 68 | 298 | 2.6 | 9.6 | 0.00 | 0.00 | 0.00 | 89 | 992.9 |
| 20260509111931 | 68 | 293 | 5.2 | 9.6 | 0.00 | 0.00 | 0.00 | 88 | 992.6 |
| 20260509111431 | 68 | 282 | 5.2 | 9.6 | 0.00 | 0.00 | 0.00 | 87 | 992.6 |
| 20260509110931 | 69 | 289 | 5.2 | 11.3 | 0.00 | 0.00 | 0.00 | 85 | 992.6 |
| 20260509110431 | 69 | 289 | 4.3 | 7.8 | 0.00 | 0.00 | 0.00 | 84 | 992.6 |
| 20260509105931 | 69 | 244 | 5.2 | 7.8 | 0.00 | 0.00 | 0.00 | 82 | 992.2 |
| 20260509105432 | 69 | 303 | 3.5 | 8.7 | 0.00 | 0.00 | 0.00 | 82 | 992.2 |
| 20260509104931 | 69 | 296 | 7.0 | 7.8 | 0.00 | 0.00 | 0.00 | 82 | 992.2 |
| 20260509104431 | 69 | 275 | 4.3 | 6.1 | 0.00 | 0.00 | 0.00 | 84 | 992.2 |
| 20260509103932 | 69 | 278 | 2.6 | 4.3 | 0.00 | 0.00 | 0.00 | 85 | 992.2 |
| 20260509103433 | 69 | 275 | 2.6 | 4.3 | 0.00 | 0.00 | 0.00 | 84 | 991.9 |
| 20260509102931 | 69 | 266 | 2.6 | 4.3 | 0.00 | 0.00 | 0.00 | 84 | 991.9 |
| 20260509102432 | 69 | 292 | 1.7 | 3.5 | 0.00 | 0.00 | 0.00 | 83 | 991.9 |
| 20260509101931 | 69 | 292 | 2.6 | 3.5 | 0.00 | 0.00 | 0.00 | 82 | 991.9 |
| 20260509101431 | 69 | 273 | 2.6 | 5.2 | 0.00 | 0.00 | 0.00 | 81 | 991.9 |
| 20260509100931 | 70 | 290 | 3.5 | 5.2 | 0.00 | 0.00 | 0.00 | 80 | 991.9 |
| 20260509100432 | 70 | 305 | 2.6 | 5.2 | 0.00 | 0.00 | 0.00 | 80 | 991.9 |
| 20260509095932 | 70 | 297 | 0.9 | 2.6 | 0.00 | 0.00 | 0.00 | 80 | 991.9 |
| 20260509095431 | 71 | 340 | 0.9 | 1.7 | 0.00 | 0.00 | 0.00 | 79 | 991.9 |
| 20260509094931 | 71 | 319 | 0.9 | 2.6 | 0.00 | 0.00 | 0.00 | 79 | 991.9 |
| 20260509094431 | 71 | 57 | 0.0 | 0.9 | 0.00 | 0.00 | 0.00 | 78 | 991.2 |
| 20260509093932 | 72 | 299 | 1.7 | 1.7 | 0.00 | 0.00 | 0.00 | 78 | 991.2 |
| 20260509093431 | 72 | 355 | 0.9 | 1.7 | 0.00 | 0.00 | 0.00 | 79 | 991.5 |
| 20260509092931 | 72 | 348 | 1.7 | 2.6 | 0.00 | 0.00 | 0.00 | 79 | 991.2 |
| 20260509092431 | 72 | 273 | 2.6 | 3.5 | 0.00 | 0.00 | 0.00 | 79 | 991.2 |
| 20260509091932 | 73 | 240 | 2.6 | 2.6 | 0.00 | 0.00 | 0.00 | 77 | 991.2 |
| 20260509091431 | 73 | 269 | 1.7 | 3.5 | 0.00 | 0.00 | 0.00 | 75 | 990.9 |
| 20260509090931 | 73 | 24 | 0.9 | 4.3 | 0.00 | 0.00 | 0.00 | 75 | 990.9 |
| 20260509090432 | 72 | 293 | 3.5 | 4.3 | 0.00 | 0.00 | 0.00 | 77 | 990.9 |
| 20260509085932 | 72 | 260 | 2.6 | 5.2 | 0.00 | 0.00 | 0.00 | 79 | 991.2 |
| 20260509085431 | 72 | 304 | 4.3 | 8.7 | 0.00 | 0.00 | 0.00 | 80 | 991.5 |
| 20260509084933 | 72 | 299 | 3.5 | 10.4 | 0.00 | 0.00 | 0.00 | 82 | 990.9 |
| 20260509084432 | 72 | 267 | 4.3 | 6.1 | 0.00 | 0.00 | 0.00 | 84 | 990.5 |
| 20260509083931 | 71 | 179 | 4.3 | 12.2 | 0.00 | 0.00 | 0.00 | 85 | 989.2 |
| 20260509083432 | 71 | 143 | 4.3 | 6.1 | 0.00 | 0.00 | 0.00 | 85 | 989.5 |
| 20260509082931 | 71 | 192 | 3.5 | 7.8 | 0.00 | 0.00 | 0.00 | 86 | 989.2 |
| 20260509082431 | 71 | 106 | 3.5 | 6.1 | 0.00 | 0.00 | 0.00 | 86 | 989.2 |
| 20260509081931 | 71 | 85 | 1.7 | 5.2 | 0.00 | 0.00 | 0.00 | 87 | 989.5 |
| 20260509081431 | 71 | 96 | 3.5 | 5.2 | 0.00 | 0.00 | 0.00 | 87 | 989.8 |
| 20260509080932 | 71 | 163 | 3.5 | 7.0 | 0.00 | 0.00 | 0.00 | 87 | 990.2 |
| 20260509080431 | 71 | 165 | 2.6 | 6.1 | 0.00 | 0.00 | 0.00 | 86 | 990.5 |
| 20260509075931 | 71 | 129 | 1.7 | 6.1 | 0.00 | 0.00 | 0.00 | 86 | 990.5 |
| 20260509075432 | 71 | 147 | 2.6 | 6.1 | 0.00 | 0.00 | 0.00 | 86 | 991.5 |
| 20260509074931 | 71 | 204 | 4.3 | 4.3 | 0.00 | 0.00 | 0.00 | 86 | 991.5 |
| 20260509074431 | 71 | 133 | 0.9 | 6.1 | 0.00 | 0.00 | 0.00 | 86 | 991.9 |
| 20260509073931 | 71 | 222 | 2.6 | 6.1 | 0.00 | 0.00 | 0.00 | 86 | 992.2 |
| 20260509073431 | 71 | 256 | 2.6 | 7.8 | 0.00 | 0.00 | 0.00 | 86 | 992.6 |
| 20260509072931 | 71 | 301 | 1.7 | 3.5 | 0.00 | 0.00 | 0.00 | 87 | 992.6 |
| 20260509072431 | 71 | 226 | 1.7 | 5.2 | 0.00 | 0.00 | 0.00 | 87 | 992.9 |
| 20260509071932 | 71 | 169 | 2.6 | 4.3 | 0.00 | 0.00 | 0.00 | 88 | 992.9 |
| 20260509071431 | 70 | 204 | 4.3 | 6.1 | 0.00 | 0.00 | 0.00 | 88 | 993.2 |
| 20260509070931 | 70 | 279 | 2.6 | 4.3 | 0.00 | 0.00 | 0.00 | 89 | 993.2 |
| 20260509070432 | 70 | 262 | 1.7 | 4.3 | 0.00 | 0.00 | 0.00 | 89 | 993.2 |
| 20260509065931 | 70 | 327 | 0.9 | 2.6 | 0.00 | 0.00 | 0.00 | 90 | 993.6 |
| 20260509065431 | 69 | 255 | 0.0 | 2.6 | 0.00 | 0.00 | 0.00 | 90 | 993.6 |
| 20260509064932 | 69 | 177 | 0.0 | 4.3 | 0.00 | 0.00 | 0.00 | 90 | 993.6 |
| 20260509064432 | 69 | 295 | 2.6 | 5.2 | 0.00 | 0.00 | 0.00 | 90 | 993.9 |
| 20260509063931 | 69 | 292 | 2.6 | 6.1 | 0.00 | 0.00 | 0.00 | 90 | 993.9 |
| 20260509063431 | 69 | 267 | 2.6 | 5.2 | 0.00 | 0.00 | 0.00 | 90 | 993.9 |
| 20260509062931 | 69 | 275 | 6.1 | 7.0 | 0.00 | 0.00 | 0.00 | 90 | 993.9 |
| 20260509062431 | 69 | 307 | 2.6 | 5.2 | 0.00 | 0.00 | 0.00 | 91 | 994.2 |
| 20260509061932 | 69 | 279 | 0.9 | 2.6 | 0.00 | 0.00 | 0.00 | 91 | 993.9 |
| 20260509061431 | 69 | 276 | 0.9 | 2.6 | 0.00 | 0.00 | 0.00 | 90 | 993.9 |
| 20260509060931 | 69 | 287 | 2.6 | 3.5 | 0.00 | 0.00 | 0.00 | 91 | 994.2 |
| 20260509060431 | 69 | 285 | 0.9 | 2.6 | 0.00 | 0.00 | 0.00 | 91 | 993.6 |
| 20260509055932 | 69 | 133 | 0.0 | 1.7 | 0.00 | 0.00 | 0.00 | 90 | 993.9 |
| 20260509055431 | 69 | 303 | 0.0 | 1.7 | 0.00 | 0.00 | 0.00 | 89 | 993.9 |
| 20260509054931 | 69 | 224 | 0.0 | 1.7 | 0.00 | 0.00 | 0.00 | 89 | 993.6 |
| 20260509054431 | 69 | 152 | 0.9 | 2.6 | 0.00 | 0.00 | 0.00 | 89 | 993.9 |
| 20260509053931 | 69 | 125 | 1.7 | 2.6 | 0.00 | 0.00 | 0.00 | 87 | 994.2 |
| 20260509053431 | 69 | 327 | 1.7 | 2.6 | 0.00 | 0.00 | 0.00 | 87 | 994.6 |
| 20260509052931 | 70 | 342 | 0.0 | 1.7 | 0.00 | 0.00 | 0.00 | 86 | 994.6 |
| 20260509052431 | 70 | 297 | 0.0 | 2.6 | 0.00 | 0.00 | 0.00 | 86 | 994.2 |
| 20260509051932 | 70 | 337 | 2.6 | 3.5 | 0.00 | 0.00 | 0.00 | 86 | 994.6 |
| 20260509051433 | 70 | 306 | 2.6 | 3.5 | 0.00 | 0.00 | 0.00 | 86 | 994.6 |
| 20260509050932 | 70 | 354 | 2.6 | 3.5 | 0.00 | 0.00 | 0.00 | 86 | 994.6 |
| 20260509050431 | 70 | 322 | 1.7 | 7.8 | 0.00 | 0.00 | 0.00 | 86 | 994.9 |
| 20260509045932 | 70 | 329 | 2.6 | 7.0 | 0.00 | 0.00 | 0.52 | 85 | 994.9 |
| 20260509045431 | 70 | 345 | 1.7 | 2.6 | 0.00 | 0.00 | 0.52 | 85 | 993.9 |
| 20260509044931 | 70 | 230 | 0.0 | 0.9 | 0.00 | 0.00 | 0.52 | 84 | 993.6 |
| 20260509044431 | 71 | 219 | 1.7 | 1.7 | 0.00 | 0.00 | 0.52 | 84 | 993.6 |
| 20260509043931 | 71 | 305 | 0.9 | 1.7 | 0.00 | 0.00 | 0.52 | 84 | 993.6 |
| 20260509042954 | 71 | 39 | 0.9 | 1.7 | 0.00 | 0.00 | 0.52 | 83 | 993.9 |
| 20260509042431 | 71 | 27 | 1.7 | 2.6 | 0.00 | 0.00 | 0.52 | 82 | 993.6 |
| 20260509041931 | 71 | 50 | 1.7 | 3.5 | 0.00 | 0.00 | 0.52 | 82 | 993.2 |
| 20260509041431 | 72 | 160 | 3.5 | 3.5 | 0.00 | 0.00 | 0.52 | 82 | 992.9 |
| 20260509040931 | 72 | 186 | 1.7 | 5.2 | 0.00 | 0.00 | 0.52 | 82 | 993.2 |
| 20260509040432 | 72 | 126 | 2.6 | 6.1 | 0.00 | 0.00 | 0.52 | 81 | 993.2 |
| 20260509035931 | 72 | 159 | 3.5 | 3.5 | 0.00 | 0.00 | 0.52 | 81 | 992.9 |
| 20260509035431 | 72 | 175 | 0.0 | 5.2 | 0.00 | 0.00 | 0.52 | 81 | 993.2 |
| 20260509034931 | 72 | 146 | 2.6 | 5.2 | 0.00 | 0.00 | 0.52 | 81 | 992.9 |
| 20260509034431 | 72 | 113 | 4.3 | 5.2 | 0.00 | 0.00 | 0.52 | 81 | 992.9 |
| 20260509033931 | 73 | 68 | 1.7 | 2.6 | 0.00 | 0.00 | 0.52 | 81 | 993.2 |
| 20260509033431 | 73 | 142 | 2.6 | 2.6 | 0.00 | 0.00 | 0.52 | 80 | 993.6 |
| 20260509032933 | 73 | 75 | 1.7 | 2.6 | 0.00 | 0.00 | 0.52 | 80 | 993.9 |
| 20260509032431 | 73 | 8 | 1.7 | 3.5 | 0.00 | 0.00 | 0.52 | 80 | 993.9 |
| 20260509031931 | 73 | 3 | 0.0 | 3.5 | 0.00 | 0.00 | 0.52 | 80 | 993.9 |
| 20260509031432 | 73 | 355 | 0.9 | 2.6 | 0.00 | 0.00 | 0.52 | 80 | 993.6 |
| 20260509030931 | 73 | 346 | 2.6 | 3.5 | 0.00 | 0.00 | 0.52 | 80 | 993.6 |
| 20260509030431 | 73 | 40 | 2.6 | 3.5 | 0.00 | 0.00 | 0.52 | 80 | 993.2 |
| 20260509025931 | 73 | 134 | 2.6 | 6.1 | 0.00 | 0.00 | 0.52 | 80 | 992.9 |
| 20260509025431 | 73 | 94 | 1.7 | 5.2 | 0.00 | 0.00 | 0.52 | 80 | 992.6 |
| 20260509024931 | 73 | 158 | 4.3 | 5.2 | 0.00 | 0.00 | 0.52 | 80 | 992.6 |
| 20260509024431 | 73 | 45 | 2.6 | 3.5 | 0.00 | 0.00 | 0.52 | 80 | 992.6 |
| 20260509023931 | 73 | 158 | 2.6 | 4.3 | 0.00 | 0.00 | 0.52 | 80 | 992.2 |
| 20260509023432 | 73 | 75 | 2.6 | 5.2 | 0.00 | 0.00 | 0.52 | 80 | 992.2 |
| 20260509022931 | 72 | 118 | 2.6 | 5.2 | 0.00 | 0.00 | 0.52 | 80 | 992.2 |
| 20260509022431 | 72 | 97 | 1.7 | 4.3 | 0.00 | 0.00 | 0.52 | 80 | 991.9 |
| 20260509021932 | 72 | 143 | 2.6 | 5.2 | 0.00 | 0.00 | 0.52 | 80 | 991.9 |
| 20260509021433 | 72 | 114 | 3.5 | 5.2 | 0.00 | 0.00 | 0.52 | 81 | 991.9 |
| 20260509020932 | 72 | 142 | 2.6 | 7.0 | 0.00 | 0.00 | 0.52 | 80 | 991.9 |
| 20260509020431 | 72 | 157 | 3.5 | 7.8 | 0.00 | 0.00 | 0.52 | 80 | 991.9 |
| 20260509015931 | 72 | 146 | 3.5 | 6.1 | 0.00 | 0.00 | 0.52 | 80 | 991.5 |
| 20260509015432 | 72 | 146 | 3.5 | 5.2 | 0.00 | 0.00 | 0.52 | 80 | 991.5 |
| 20260509014931 | 72 | 163 | 4.3 | 6.1 | 0.00 | 0.00 | 0.52 | 80 | 991.5 |
| 20260509014431 | 72 | 215 | 0.0 | 7.0 | 0.00 | 0.00 | 0.52 | 80 | 991.5 |
| 20260509013931 | 72 | 182 | 2.6 | 7.8 | 0.00 | 0.00 | 0.52 | 80 | 991.5 |
| 20260509013432 | 72 | 150 | 1.7 | 3.5 | 0.00 | 0.00 | 0.52 | 79 | 991.9 |
| 20260509012932 | 73 | 160 | 2.6 | 3.5 | 0.00 | 0.00 | 0.52 | 79 | 992.2 |
| 20260509012431 | 73 | 145 | 1.7 | 3.5 | 0.00 | 0.00 | 0.52 | 79 | 991.9 |
| 20260509011931 | 72 | 229 | 0.9 | 2.6 | 0.00 | 0.00 | 0.52 | 78 | 992.2 |
| 20260509011431 | 73 | 160 | 0.0 | 2.6 | 0.00 | 0.00 | 0.52 | 78 | 991.9 |
| 20260509010931 | 72 | 249 | 0.9 | 3.5 | 0.00 | 0.00 | 0.52 | 78 | 991.9 |
| 20260509010432 | 73 | 152 | 1.7 | 2.6 | 0.00 | 0.00 | 0.52 | 78 | 991.9 |
| 20260509005932 | 73 | 99 | 0.0 | 2.6 | 0.00 | 0.00 | 0.52 | 78 | 991.5 |
| 20260509005432 | 73 | 134 | 2.6 | 4.3 | 0.00 | 0.00 | 0.52 | 77 | 991.9 |
| 20260509004931 | 73 | 84 | 0.9 | 2.6 | 0.00 | 0.00 | 0.52 | 77 | 991.9 |
| 20260509004432 | 73 | 150 | 3.5 | 6.1 | 0.00 | 0.00 | 0.52 | 77 | 991.5 |
| 20260509003932 | 73 | 168 | 2.6 | 3.5 | 0.00 | 0.00 | 0.52 | 76 | 991.5 |
| 20260509003431 | 73 | 247 | 2.6 | 5.2 | 0.00 | 0.00 | 0.52 | 76 | 991.2 |
| 20260509002931 | 73 | 173 | 0.9 | 6.1 | 0.00 | 0.00 | 0.52 | 76 | 991.2 |
| 20260509002432 | 73 | 161 | 4.3 | 5.2 | 0.00 | 0.00 | 0.52 | 75 | 991.2 |
| 20260509001931 | 73 | 136 | 2.6 | 6.1 | 0.00 | 0.00 | 0.52 | 75 | 991.5 |
| 20260509001431 | 73 | 176 | 1.7 | 4.3 | 0.00 | 0.00 | 0.52 | 75 | 991.2 |
| 20260509000931 | 74 | 162 | 5.2 | 6.1 | 0.00 | 0.00 | 0.52 | 73 | 991.2 |
| 20260509000432 | 74 | 194 | 2.6 | 4.3 | 0.00 | 0.00 | 0.52 | 74 | 991.2 |
| 20260508235934 | 74 | 187 | 2.6 | 6.1 | 0.00 | 0.00 | 0.52 | 73 | 991.5 |
| 20260508235431 | 74 | 168 | 2.6 | 9.6 | 0.00 | 0.00 | 0.52 | 73 | 991.5 |
| 20260508234931 | 73 | 125 | 4.3 | 7.0 | 0.00 | 0.00 | 0.52 | 73 | 991.5 |
| 20260508234432 | 74 | 151 | 6.1 | 7.8 | 0.00 | 0.00 | 0.52 | 73 | 991.9 |
| 20260508233931 | 74 | 141 | 2.6 | 6.1 | 0.00 | 0.00 | 0.52 | 73 | 991.9 |
| 20260508233431 | 74 | 162 | 3.5 | 7.8 | 0.00 | 0.00 | 0.52 | 72 | 991.9 |
| 20260508232931 | 74 | 159 | 4.3 | 5.2 | 0.00 | 0.00 | 0.52 | 73 | 991.9 |
| 20260508232431 | 74 | 157 | 2.6 | 5.2 | 0.00 | 0.00 | 0.52 | 72 | 991.9 |
| 20260508231932 | 74 | 183 | 1.7 | 7.0 | 0.00 | 0.00 | 0.52 | 72 | 991.5 |
| 20260508231431 | 74 | 209 | 4.3 | 7.0 | 0.00 | 0.00 | 0.52 | 71 | 991.9 |
| 20260508230931 | 74 | 124 | 4.3 | 7.0 | 0.00 | 0.00 | 0.52 | 71 | 991.9 |
| 20260508230437 | 74 | 153 | 4.3 | 7.8 | 0.00 | 0.00 | 0.52 | 71 | 991.9 |
| 20260508225931 | 74 | 170 | 3.5 | 7.0 | 0.00 | 0.00 | 0.52 | 70 | 991.9 |
| 20260508225432 | 75 | 139 | 5.2 | 7.0 | 0.00 | 0.00 | 0.52 | 69 | 991.9 |
| 20260508224932 | 75 | 160 | 2.6 | 6.1 | 0.00 | 0.00 | 0.52 | 69 | 991.9 |
| 20260508224431 | 75 | 194 | 2.6 | 6.1 | 0.00 | 0.00 | 0.52 | 69 | 991.9 |
| 20260508223932 | 75 | 152 | 2.6 | 7.0 | 0.00 | 0.00 | 0.52 | 68 | 991.9 |
| 20260508223431 | 74 | 144 | 4.3 | 7.8 | 0.00 | 0.00 | 0.52 | 68 | 991.9 |
| 20260508222931 | 74 | 166 | 3.5 | 7.8 | 0.00 | 0.00 | 0.52 | 66 | 991.9 |
| 20260508222431 | 75 | 179 | 6.1 | 7.8 | 0.00 | 0.00 | 0.52 | 67 | 991.9 |
| 20260508221931 | 75 | 156 | 4.3 | 9.6 | 0.00 | 0.00 | 0.52 | 67 | 991.9 |
| 20260508221432 | 74 | 155 | 2.6 | 8.7 | 0.00 | 0.00 | 0.52 | 67 | 991.9 |
| 20260508220931 | 74 | 198 | 3.5 | 9.6 | 0.00 | 0.00 | 0.52 | 67 | 991.9 |
| 20260508220433 | 74 | 149 | 2.6 | 6.1 | 0.00 | 0.00 | 0.52 | 68 | 991.9 |
| 20260508215931 | 74 | 166 | 6.1 | 7.8 | 0.00 | 0.00 | 0.52 | 68 | 991.9 |
| 20260508215431 | 74 | 160 | 3.5 | 8.7 | 0.00 | 0.00 | 0.52 | 68 | 991.9 |
| 20260508214931 | 73 | 152 | 5.2 | 7.8 | 0.00 | 0.00 | 0.52 | 68 | 992.2 |
| 20260508214431 | 73 | 145 | 8.7 | 9.6 | 0.00 | 0.00 | 0.52 | 69 | 991.9 |
| 20260508213931 | 74 | 150 | 10.4 | 11.3 | 0.00 | 0.00 | 0.52 | 67 | 991.9 |
| 20260508213432 | 74 | 139 | 5.2 | 9.6 | 0.00 | 0.00 | 0.52 | 67 | 991.9 |
| 20260508212931 | 74 | 149 | 5.2 | 8.7 | 0.00 | 0.00 | 0.52 | 67 | 992.2 |
| 20260508212431 | 73 | 176 | 4.3 | 8.7 | 0.00 | 0.00 | 0.52 | 68 | 992.2 |
| 20260508211934 | 73 | 161 | 3.5 | 6.1 | 0.00 | 0.00 | 0.52 | 70 | 992.2 |
| 20260508211431 | 73 | 167 | 2.6 | 6.1 | 0.00 | 0.00 | 0.52 | 69 | 992.6 |
| 20260508210931 | 73 | 150 | 5.2 | 7.0 | 0.00 | 0.00 | 0.52 | 69 | 992.6 |
| 20260508210431 | 73 | 219 | 0.9 | 5.2 | 0.00 | 0.00 | 0.52 | 69 | 992.6 |
| 20260508205932 | 73 | 153 | 3.5 | 7.8 | 0.00 | 0.00 | 0.52 | 68 | 992.6 |
| 20260508205432 | 73 | 208 | 5.2 | 7.8 | 0.00 | 0.00 | 0.52 | 66 | 992.6 |
| 20260508204931 | 74 | 98 | 3.5 | 6.1 | 0.00 | 0.00 | 0.52 | 68 | 992.2 |
| 20260508204431 | 74 | 153 | 7.0 | 8.7 | 0.00 | 0.00 | 0.52 | 66 | 992.6 |
| 20260508203932 | 73 | 201 | 2.6 | 7.0 | 0.00 | 0.00 | 0.52 | 67 | 992.9 |
| 20260508203431 | 72 | 141 | 3.5 | 7.0 | 0.00 | 0.00 | 0.52 | 68 | 993.2 |
| 20260508202931 | 72 | 143 | 4.3 | 4.3 | 0.00 | 0.00 | 0.52 | 69 | 993.6 |
| 20260508202432 | 72 | 128 | 2.6 | 4.3 | 0.00 | 0.00 | 0.52 | 69 | 993.9 |
| 20260508201934 | 73 | 164 | 3.5 | 5.2 | 0.00 | 0.00 | 0.52 | 68 | 994.2 |
| 20260508201431 | 73 | 201 | 2.6 | 6.1 | 0.00 | 0.00 | 0.52 | 68 | 994.2 |
| 20260508200931 | 73 | 207 | 1.7 | 7.0 | 0.00 | 0.00 | 0.52 | 68 | 994.2 |
| 20260508200432 | 73 | 192 | 3.5 | 4.3 | 0.00 | 0.00 | 0.52 | 68 | 994.2 |
| 20260508195931 | 74 | 194 | 2.6 | 5.2 | 0.00 | 0.00 | 0.52 | 67 | 994.2 |
| 20260508195431 | 74 | 231 | 1.7 | 3.5 | 0.00 | 0.00 | 0.52 | 67 | 994.2 |
| 20260508194931 | 73 | 238 | 2.6 | 4.3 | 0.00 | 0.00 | 0.52 | 67 | 994.2 |
| 20260508194431 | 73 | 195 | 0.0 | 2.6 | 0.00 | 0.00 | 0.52 | 68 | 993.9 |
| 20260508193931 | 73 | 288 | 1.7 | 5.2 | 0.00 | 0.00 | 0.52 | 68 | 994.2 |
| 20260508193431 | 73 | 256 | 0.9 | 3.5 | 0.00 | 0.00 | 0.52 | 69 | 994.2 |
| 20260508192931 | 73 | 182 | 2.6 | 6.1 | 0.00 | 0.00 | 0.52 | 68 | 993.9 |
| 20260508192432 | 73 | 153 | 4.3 | 6.1 | 0.00 | 0.00 | 0.52 | 68 | 994.2 |
| 20260508191931 | 73 | 163 | 3.5 | 5.2 | 0.00 | 0.00 | 0.52 | 67 | 994.2 |
| 20260508191432 | 74 | 192 | 0.9 | 5.2 | 0.00 | 0.00 | 0.52 | 66 | 994.2 |
| 20260508190931 | 74 | 217 | 2.6 | 7.0 | 0.00 | 0.00 | 0.52 | 67 | 994.2 |
| 20260508190431 | 73 | 232 | 2.6 | 4.3 | 0.00 | 0.00 | 0.52 | 66 | 994.2 |
| 20260508185932 | 74 | 184 | 1.7 | 4.3 | 0.00 | 0.00 | 0.52 | 66 | 994.2 |
| 20260508185431 | 74 | 262 | 2.6 | 3.5 | 0.00 | 0.00 | 0.52 | 65 | 994.2 |
| 20260508184932 | 74 | 217 | 2.6 | 4.3 | 0.00 | 0.00 | 0.52 | 64 | 994.2 |
| 20260508184431 | 75 | 199 | 1.7 | 4.3 | 0.00 | 0.00 | 0.52 | 64 | 994.6 |
| 20260508183931 | 74 | 220 | 0.9 | 4.3 | 0.00 | 0.00 | 0.52 | 65 | 994.6 |
| 20260508183433 | 74 | 255 | 1.7 | 4.3 | 0.00 | 0.00 | 0.52 | 63 | 994.6 |
| 20260508182931 | 74 | 211 | 2.6 | 4.3 | 0.00 | 0.00 | 0.52 | 66 | 994.6 |
| 20260508182431 | 74 | 161 | 2.6 | 4.3 | 0.00 | 0.00 | 0.52 | 64 | 994.6 |
| 20260508181931 | 73 | 168 | 2.6 | 4.3 | 0.00 | 0.00 | 0.52 | 64 | 994.6 |
| 20260508181435 | 73 | 226 | 2.6 | 2.6 | 0.00 | 0.00 | 0.52 | 65 | 994.9 |
| 20260508180931 | 73 | 175 | 2.6 | 2.6 | 0.00 | 0.00 | 0.52 | 65 | 995.3 |
| 20260508180431 | 73 | 212 | 2.6 | 4.3 | 0.00 | 0.00 | 0.52 | 65 | 995.3 |
| 20260508175932 | 74 | 221 | 1.7 | 3.5 | 0.00 | 0.00 | 0.52 | 67 | 995.3 |
| 20260508175431 | 74 | 181 | 1.7 | 6.1 | 0.00 | 0.00 | 0.52 | 64 | 995.3 |
| 20260508174931 | 74 | 225 | 1.7 | 7.0 | 0.00 | 0.00 | 0.52 | 66 | 995.3 |
| 20260508174431 | 73 | 233 | 1.7 | 5.2 | 0.00 | 0.00 | 0.52 | 65 | 995.3 |
| 20260508173933 | 73 | 142 | 2.6 | 7.0 | 0.00 | 0.00 | 0.52 | 67 | 995.3 |
| 20260508173431 | 73 | 197 | 1.7 | 4.3 | 0.00 | 0.00 | 0.52 | 65 | 995.6 |
| 20260508172932 | 72 | 121 | 1.7 | 5.2 | 0.00 | 0.00 | 0.52 | 66 | 995.6 |
| 20260508172431 | 72 | 158 | 4.3 | 8.7 | 0.00 | 0.00 | 0.52 | 65 | 995.6 |
| 20260508171932 | 72 | 144 | 4.3 | 5.2 | 0.00 | 0.00 | 0.52 | 64 | 995.6 |
| 20260508171431 | 71 | 158 | 1.7 | 6.1 | 0.00 | 0.00 | 0.52 | 66 | 995.9 |
| 20260508170932 | 71 | 161 | 3.5 | 4.3 | 0.00 | 0.00 | 0.52 | 66 | 995.6 |
| 20260508170431 | 70 | 154 | 1.7 | 4.3 | 0.00 | 0.00 | 0.52 | 66 | 995.9 |
| 20260508165932 | 70 | 115 | 3.5 | 5.2 | 0.00 | 0.00 | 0.52 | 66 | 995.9 |
| 20260508165431 | 71 | 144 | 3.5 | 7.0 | 0.00 | 0.00 | 0.52 | 66 | 995.9 |
| 20260508164931 | 70 | 130 | 3.5 | 6.1 | 0.00 | 0.00 | 0.52 | 66 | 996.3 |
| 20260508164431 | 70 | 190 | 2.6 | 6.1 | 0.00 | 0.00 | 0.52 | 69 | 996.3 |
| 20260508163932 | 69 | 161 | 2.6 | 4.3 | 0.00 | 0.00 | 0.52 | 68 | 996.6 |
| 20260508163432 | 69 | 159 | 4.3 | 6.1 | 0.00 | 0.00 | 0.52 | 67 | 996.6 |
| 20260508162931 | 69 | 156 | 6.1 | 7.8 | 0.00 | 0.00 | 0.52 | 68 | 997.0 |
| 20260508162432 | 69 | 133 | 2.6 | 7.8 | 0.00 | 0.00 | 0.52 | 67 | 996.6 |
| 20260508161932 | 68 | 185 | 1.7 | 6.1 | 0.00 | 0.00 | 0.52 | 67 | 997.0 |
| 20260508161431 | 68 | 157 | 2.6 | 6.1 | 0.00 | 0.00 | 0.52 | 68 | 997.0 |
| 20260508160932 | 68 | 132 | 1.7 | 6.1 | 0.00 | 0.00 | 0.52 | 68 | 997.0 |
| 20260508160432 | 68 | 154 | 4.3 | 6.1 | 0.00 | 0.00 | 0.52 | 69 | 997.0 |
| 20260508155932 | 68 | 153 | 4.3 | 5.2 | 0.00 | 0.00 | 0.52 | 69 | 997.0 |
| 20260508155431 | 67 | 148 | 3.5 | 6.1 | 0.00 | 0.00 | 0.52 | 71 | 997.0 |
| 20260508154931 | 67 | 135 | 2.6 | 5.2 | 0.00 | 0.00 | 0.52 | 70 | 997.0 |
| 20260508154431 | 67 | 160 | 1.7 | 4.3 | 0.00 | 0.00 | 0.52 | 70 | 997.3 |
| 20260508153934 | 67 | 195 | 0.9 | 4.3 | 0.00 | 0.00 | 0.52 | 69 | 997.3 |
| 20260508153432 | 67 | 151 | 3.5 | 6.1 | 0.00 | 0.00 | 0.52 | 71 | 997.3 |
| 20260508152931 | 67 | 141 | 5.2 | 5.2 | 0.00 | 0.00 | 0.52 | 71 | 997.3 |
| 20260508152433 | 67 | 155 | 2.6 | 7.8 | 0.00 | 0.00 | 0.52 | 69 | 997.3 |
| 20260508151932 | 66 | 139 | 2.6 | 5.2 | 0.00 | 0.00 | 0.52 | 71 | 997.3 |
| 20260508151431 | 66 | 117 | 4.3 | 4.3 | 0.00 | 0.00 | 0.52 | 75 | 997.3 |
| 20260508150932 | 65 | 158 | 3.5 | 5.2 | 0.00 | 0.00 | 0.52 | 71 | 997.6 |